K5RG-3 Weather Reports


Display with metric or nautical units.
time (UTC)temp
F
wind
direction
speed
MPH
gust
MPH
rain 1hr
in
rain 24hr
in
rain mn
in
humidity
%
barometer
mb
20260509091516 74 72 0.0 0.0 0.00 0.00 0.00 96 1007.2
20260509090041 74 72 0.0 0.0 0.00 0.00 0.00 95 1007.2
20260509084522 74 94 0.0 0.0 0.00 0.00 0.00 95 1007.3
20260509083034 74 178 0.0 0.0 0.00 0.00 0.00 95 1007.4
20260509081518 74 178 0.0 0.0 0.00 0.00 0.00 95 1007.5
20260509080012 74 178 0.0 1.0 0.00 0.00 0.00 95 1007.6
20260509074523 74 178 0.0 0.0 0.00 0.00 0.00 95 1007.9
20260509073008 74 178 0.0 0.0 0.00 0.00 0.00 95 1008.0
20260509071508 74 178 0.0 0.0 0.00 0.00 0.00 94 1008.1
20260509070006 74 178 0.0 0.0 0.00 0.00 0.00 94 1008.0
20260509064504 74 178 0.0 0.0 0.00 0.00 0.00 94 1007.8
20260509063003 74 178 0.0 1.0 0.00 0.00 0.00 94 1008.1
20260509061500 75 178 0.0 0.0 0.00 0.00 0.00 94 1008.2
20260509060059 75 178 0.0 0.0 0.00 0.00 0.00 94 1008.1
20260509054559 75 178 0.0 0.0 0.00 0.00 0.00 94 1008.0
20260509053056 75 178 0.0 0.0 0.00 0.00 0.00 94 1008.4
20260509051557 76 178 0.0 0.0 0.00 0.00 0.00 94 1008.2
20260509050100 76 182 0.0 1.0 0.00 0.00 0.00 94 1008.5
20260509044554 76 182 0.0 1.0 0.00 0.00 0.00 94 1008.6
20260509043054 76 98 0.0 1.0 0.00 0.00 0.00 94 1008.7
20260509041552 76 75 0.0 0.0 0.00 0.00 0.00 94 1008.6
20260509040050 76 75 0.0 3.0 0.00 0.00 0.00 94 1008.4
20260509034547 75 99 0.0 4.0 0.00 0.00 0.00 94 1008.1
20260509033058 75 89 1.0 6.0 0.00 0.00 0.00 94 1008.0
20260509031542 75 75 1.0 6.0 0.00 0.00 0.00 94 1008.1
20260509030042 75 79 0.0 6.0 0.00 0.00 0.00 94 1007.9
20260509024542 75 88 1.0 5.0 0.00 0.00 0.00 93 1007.8
20260509023041 75 84 1.0 5.0 0.00 0.00 0.00 93 1007.5
20260509021540 75 104 3.0 6.0 0.00 0.00 0.00 93 1007.6
20260509020038 75 105 0.0 7.0 0.00 0.00 0.00 93 1007.3
20260509014533 75 76 1.0 8.0 0.00 0.00 0.00 93 1007.1
20260509013035 75 94 3.0 8.0 0.00 0.00 0.00 93 1007.3
20260509011525 75 88 3.0 10.0 0.00 0.00 0.00 93 1007.3
20260509010020 75 136 1.0 7.0 0.00 0.00 0.00 92 1007.1
20260509004519 75 89 2.0 11.0 0.00 0.00 0.00 92 1007.2
20260509003018 74 102 3.0 9.0 0.00 0.00 0.00 92 1007.5
20260509001517 74 129 6.0 13.0 0.00 0.00 0.00 92 1006.7
20260509000033 75 101 4.0 12.0 0.00 0.00 0.00 91 1007.2
20260508234515 75 96 3.0 8.0 0.00 0.00 0.00 91 1007.7
20260508233015 75 70 4.0 9.0 0.00 0.00 0.00 91 1007.6
20260508231514 75 84 2.0 7.0 0.00 0.00 0.00 90 1007.5
20260508230011 75 77 3.0 9.0 0.00 0.00 0.00 90 1007.3
20260508224522 75 108 6.0 11.0 0.00 0.00 0.00 89 1007.1
20260508223005 75 81 1.0 7.0 0.00 0.00 0.00 89 1007.2
20260508221502 75 102 0.0 7.0 0.00 0.00 0.00 89 1007.5
20260508220058 74 90 2.0 8.0 0.00 0.00 0.00 89 1007.6
20260508214553 74 100 1.0 8.0 0.00 0.00 0.00 89 1007.7
20260508213048 74 95 2.0 7.0 0.00 0.00 0.00 88 1007.8
20260508211549 74 91 0.0 8.0 0.00 0.00 0.00 89 1007.8
20260508210044 73 85 1.0 4.0 0.00 0.00 0.00 89 1008.0
20260508204544 73 104 3.0 9.0 0.00 0.00 0.00 89 1007.8
20260508203041 73 69 5.0 10.0 0.00 0.00 0.00 90 1008.2
20260508201541 73 75 1.0 10.0 0.00 0.00 0.00 90 1008.7
20260508200045 73 84 4.0 10.0 0.00 0.00 0.00 91 1008.7
20260508194536 72 110 2.0 8.0 0.00 0.00 0.00 92 1008.9
20260508193043 71 101 7.0 13.0 0.00 0.00 0.00 93 1008.7
20260508191533 71 55 6.0 12.0 0.00 0.00 0.00 94 1008.7
20260508190031 70 79 6.0 12.0 0.00 0.00 0.00 94 1008.9
20260508184530 69 123 6.0 14.0 0.00 0.00 0.00 94 1009.1
20260508183028 69 75 5.0 10.0 0.00 0.00 0.00 94 1009.5
20260508181525 69 46 3.0 12.0 0.00 0.00 0.00 94 1009.8
20260508180026 69 72 4.0 10.0 0.00 0.00 0.00 94 1009.9
20260508174526 69 84 5.0 12.0 0.00 0.00 0.00 94 1009.9
20260508173026 69 102 6.0 13.0 0.00 0.00 0.00 94 1009.9
20260508171531 68 79 5.0 12.0 0.00 0.00 0.00 93 1009.9
20260508170018 68 82 3.0 10.0 0.00 0.00 0.00 93 1010.4
20260508164522 68 70 3.0 9.0 0.00 0.00 0.00 93 1010.7
20260508163017 68 73 6.0 12.0 0.00 0.00 0.00 92 1010.8
20260508161530 68 78 3.0 7.0 0.00 0.00 0.00 92 1011.0
20260508160019 68 93 6.0 13.0 0.00 0.00 0.00 93 1011.1
20260508154515 68 29 5.0 10.0 0.00 0.00 0.00 93 1011.3
20260508153012 68 84 4.0 8.0 0.00 0.00 0.00 93 1011.2
20260508151511 67 356 5.0 13.0 0.00 0.00 0.00 93 1010.9
20260508150018 67 48 6.0 13.0 0.00 0.00 0.00 93 1010.8
20260508144512 67 50 5.0 11.0 0.00 0.00 0.00 93 1011.0
20260508143016 67 33 2.0 8.0 0.00 0.00 0.00 93 1011.3
20260508141507 68 8 1.0 4.0 0.00 0.00 0.00 93 1011.6
20260508140004 68 56 2.0 7.0 0.00 0.00 0.00 92 1011.1
20260508134502 68 41 1.0 7.0 0.00 0.00 0.00 93 1011.2
20260508133002 68 75 0.0 7.0 0.00 0.00 0.00 93 1011.0
20260508131601 67 67 0.0 7.0 0.00 0.00 0.00 93 1011.3
20260508130057 67 66 4.0 9.0 0.00 0.00 0.00 92 1010.9
20260508124601 68 59 2.0 9.0 0.00 0.00 0.00 92 1011.0
20260508123053 68 25 3.0 10.0 0.00 0.00 0.00 92 1011.2
20260508121551 68 48 4.0 9.0 0.00 0.00 0.00 93 1011.1
20260508120050 68 77 4.0 9.0 0.00 0.00 0.00 93 1010.5
20260508114549 68 62 3.0 8.0 0.00 0.00 0.00 93 1010.5
20260508113117 68 75 3.0 9.0 0.00 0.00 0.00 93 1010.7
20260508111547 69 24 2.0 6.0 0.00 0.00 0.00 93 1011.1
20260508110047 69 62 2.0 7.0 0.00 0.00 0.00 93 1010.8
20260508104554 69 106 2.0 8.0 0.00 0.00 0.00 93 1010.1
20260508103043 69 94 2.0 10.0 0.00 0.00 0.00 92 1010.3
20260508101544 70 68 6.0 10.0 0.00 0.00 0.00 92 1010.6
20260508100040 70 79 7.0 12.0 0.00 0.00 0.00 92 1010.4
20260508094536 71 75 7.0 12.0 0.00 0.00 0.00 91 1010.7
20260508093034 72 61 4.0 8.0 0.00 0.00 0.00 91 1010.6